Time,TemperatureF,DewpointF,PressureIn,WindDirection,WindDirectionDegrees,WindSpeedMPH,WindSpeedGustMPH,Humidity,HourlyPrecipIn,Conditions,Clouds,dailyrainin,SoftwareType,DateUTC
2013-01-23 03:00:00,18.3,7.5,30.29,North,0,0.0,0.0,62,0.00,,,0.00,WUHU216DAVISVP2,2013-01-23 08:00:00,
2013-01-23 03:01:00,18.3,7.5,30.29,North,0,0.0,0.0,62,0.00,,,0.00,WUHU216DAVISVP2,2013-01-23 08:01:00,
2013-01-23 03:06:00,18.3,7.5,30.29,North,0,0.0,0.0,62,0.00,,,0.00,WUHU216DAVISVP2,2013-01-23 08:06:00,
2013-01-23 03:12:00,18.3,7.5,30.29,North,0,0.0,0.0,62,0.00,,,0.00,WUHU216DAVISVP2,2013-01-23 08:12:00,
2013-01-23 03:17:00,18.3,7.1,30.30,North,0,0.0,0.0,61,0.00,,,0.00,WUHU216DAVISVP2,2013-01-23 08:17:00,
2013-01-23 03:22:00,18.1,7.3,30.30,North,0,0.0,0.0,62,0.00,,,0.00,WUHU216DAVISVP2,2013-01-23 08:22:00,
2013-01-23 03:27:00,18.1,7.3,30.30,North,0,0.0,0.0,62,0.00,,,0.00,WUHU216DAVISVP2,2013-01-23 08:27:00,
2013-01-23 03:32:00,18.1,7.3,30.30,North,0,0.0,0.0,62,0.00,,,0.00,WUHU216DAVISVP2,2013-01-23 08:32:00,
2013-01-23 03:37:00,18.1,6.9,30.30,North,0,0.0,0.0,61,0.00,,,0.00,WUHU216DAVISVP2,2013-01-23 08:37:00,
2013-01-23 03:43:00,18.1,6.9,30.30,North,0,0.0,0.0,61,0.00,,,0.00,WUHU216DAVISVP2,2013-01-23 08:43:00,
2013-01-23 03:48:00,18.0,6.4,30.29,North,0,0.0,0.0,60,0.00,,,0.00,WUHU216DAVISVP2,2013-01-23 08:48:00,
2013-01-23 03:53:00,18.0,6.5,30.29,North,0,0.0,0.0,60,0.00,,,0.00,WUHU216DAVISVP2,2013-01-23 08:53:00,
2013-01-23 03:58:00,17.8,6.7,30.29,North,0,0.0,0.0,61,0.00,,,0.00,WUHU216DAVISVP2,2013-01-23 08:58:00,
2013-01-23 04:03:00,17.8,6.7,30.30,North,0,0.0,0.0,61,0.00,,,0.00,WUHU216DAVISVP2,2013-01-23 09:03:00,
2013-01-23 04:08:00,17.8,6.7,30.30,North,0,0.0,0.0,61,0.00,,,0.00,WUHU216DAVISVP2,2013-01-23 09:08:00,
2013-01-23 04:13:00,17.7,6.5,30.30,North,0,0.0,0.0,61,0.00,,,0.00,WUHU216DAVISVP2,2013-01-23 09:13:00,
2013-01-23 04:18:00,17.5,6.4,30.31,North,0,0.0,0.0,61,0.00,,,0.00,WUHU216DAVISVP2,2013-01-23 09:18:00,
2013-01-23 04:23:00,17.5,6.3,30.31,North,0,0.0,0.0,61,0.00,,,0.00,WUHU216DAVISVP2,2013-01-23 09:23:00,
2013-01-23 04:27:00,17.3,6.1,30.31,North,0,0.0,0.0,61,0.00,,,0.00,WUHU216DAVISVP2,2013-01-23 09:27:00,
2013-01-23 04:33:00,17.2,6.1,30.31,North,0,0.0,0.0,61,0.00,,,0.00,WUHU216DAVISVP2,2013-01-23 09:33:00,
2013-01-23 04:38:00,17.2,6.1,30.31,North,0,0.0,0.0,61,0.00,,,0.00,WUHU216DAVISVP2,2013-01-23 09:38:00,
2013-01-23 04:43:00,17.0,6.3,30.31,North,0,0.0,0.0,62,0.00,,,0.00,WUHU216DAVISVP2,2013-01-23 09:43:00,
2013-01-23 04:48:00,17.0,6.3,30.32,North,0,0.0,0.0,62,0.00,,,0.00,WUHU216DAVISVP2,2013-01-23 09:48:00,
2013-01-23 04:53:00,16.9,6.1,30.32,North,0,0.0,0.0,62,0.00,,,0.00,WUHU216DAVISVP2,2013-01-23 09:53:00,
2013-01-23 04:58:00,16.9,6.1,30.32,North,0,0.0,0.0,62,0.00,,,0.00,WUHU216DAVISVP2,2013-01-23 09:58:00,
2013-01-23 05:03:00,16.7,6.0,30.32,North,0,0.0,0.0,62,0.00,,,0.00,WUHU216DAVISVP2,2013-01-23 10:03:00,
2013-01-23 05:08:00,16.7,6.0,30.32,North,0,0.0,0.0,62,0.00,,,0.00,WUHU216DAVISVP2,2013-01-23 10:08:00,
2013-01-23 05:13:00,16.5,5.8,30.32,North,0,0.0,0.0,62,0.00,,,0.00,WUHU216DAVISVP2,2013-01-23 10:13:00,
2013-01-23 05:18:00,16.5,5.8,30.33,North,0,0.0,0.0,62,0.00,,,0.00,WUHU216DAVISVP2,2013-01-23 10:18:00,
2013-01-23 05:22:00,16.5,5.8,30.33,North,0,0.0,0.0,62,0.00,,,0.00,WUHU216DAVISVP2,2013-01-23 10:22:00,
2013-01-23 05:27:00,16.5,5.8,30.33,North,0,0.0,0.0,62,0.00,,,0.00,WUHU216DAVISVP2,2013-01-23 10:27:00,
2013-01-23 05:32:00,16.5,6.1,30.33,North,0,0.0,0.0,63,0.00,,,0.00,WUHU216DAVISVP2,2013-01-23 10:32:00,
2013-01-23 05:37:00,16.5,6.1,30.33,North,0,0.0,0.0,63,0.00,,,0.00,WUHU216DAVISVP2,2013-01-23 10:37:00,
2013-01-23 05:42:00,16.5,6.1,30.33,North,0,0.0,0.0,63,0.00,,,0.00,WUHU216DAVISVP2,2013-01-23 10:42:00,
2013-01-23 05:47:00,16.5,6.1,30.33,North,0,0.0,0.0,63,0.00,,,0.00,WUHU216DAVISVP2,2013-01-23 10:47:00,
2013-01-23 05:52:00,16.4,6.3,30.33,North,0,0.0,0.0,64,0.00,,,0.00,WUHU216DAVISVP2,2013-01-23 10:52:00,
2013-01-23 05:57:00,16.5,6.5,30.33,North,0,0.0,0.0,64,0.00,,,0.00,WUHU216DAVISVP2,2013-01-23 10:57:00,
2013-01-23 06:02:00,16.5,6.5,30.33,North,0,0.0,0.0,64,0.00,,,0.00,WUHU216DAVISVP2,2013-01-23 11:02:00,
2013-01-23 06:07:00,16.5,6.5,30.33,North,0,0.0,0.0,64,0.00,,,0.00,WUHU216DAVISVP2,2013-01-23 11:07:00,
2013-01-23 06:12:00,16.5,6.4,30.33,North,0,0.0,0.0,64,0.00,,,0.00,WUHU216DAVISVP2,2013-01-23 11:12:00,
2013-01-23 06:17:00,16.5,6.8,30.33,North,0,0.0,0.0,65,0.00,,,0.00,WUHU216DAVISVP2,2013-01-23 11:17:00,
2013-01-23 06:22:00,16.5,6.8,30.33,North,0,0.0,0.0,65,0.00,,,0.00,WUHU216DAVISVP2,2013-01-23 11:22:00,
2013-01-23 06:28:00,16.5,6.8,30.33,North,0,0.0,0.0,65,0.00,,,0.00,WUHU216DAVISVP2,2013-01-23 11:28:00,
2013-01-23 06:33:00,16.5,6.8,30.33,North,0,0.0,0.0,65,0.00,,,0.00,WUHU216DAVISVP2,2013-01-23 11:33:00,
2013-01-23 06:38:00,16.4,6.7,30.33,North,0,0.0,0.0,65,0.00,,,0.00,WUHU216DAVISVP2,2013-01-23 11:38:00,
2013-01-23 06:43:00,16.4,6.7,30.33,North,0,0.0,0.0,65,0.00,,,0.00,WUHU216DAVISVP2,2013-01-23 11:43:00,
2013-01-23 06:48:00,16.4,6.7,30.34,North,0,0.0,0.0,65,0.00,,,0.00,WUHU216DAVISVP2,2013-01-23 11:48:00,
2013-01-23 06:53:00,16.4,6.7,30.34,North,0,0.0,0.0,65,0.00,,,0.00,WUHU216DAVISVP2,2013-01-23 11:53:00,
2013-01-23 06:58:00,16.4,7.0,30.34,North,0,0.0,0.0,66,0.00,,,0.00,WUHU216DAVISVP2,2013-01-23 11:58:00,
2013-01-23 07:03:00,16.4,7.0,30.35,North,0,0.0,0.0,66,0.00,,,0.00,WUHU216DAVISVP2,2013-01-23 12:03:00,
2013-01-23 07:08:00,16.4,7.0,30.35,North,0,0.0,0.0,66,0.00,,,0.00,WUHU216DAVISVP2,2013-01-23 12:08:00,
2013-01-23 07:13:00,16.4,6.7,30.35,North,0,0.0,0.0,65,0.00,,,0.00,WUHU216DAVISVP2,2013-01-23 12:13:00,
2013-01-23 07:18:00,16.4,6.7,30.34,North,0,0.0,0.0,65,0.00,,,0.00,WUHU216DAVISVP2,2013-01-23 12:18:00,
2013-01-23 07:23:00,16.2,6.5,30.34,North,0,0.0,0.0,65,0.00,,,0.00,WUHU216DAVISVP2,2013-01-23 12:23:00,
2013-01-23 07:28:00,16.2,6.8,30.34,North,0,0.0,0.0,66,0.00,,,0.00,WUHU216DAVISVP2,2013-01-23 12:28:00,
2013-01-23 07:33:00,16.2,6.8,30.35,North,0,0.0,0.0,66,0.00,,,0.00,WUHU216DAVISVP2,2013-01-23 12:33:00,
2013-01-23 07:38:00,16.2,6.9,30.35,North,0,0.0,0.0,66,0.00,,,0.00,WUHU216DAVISVP2,2013-01-23 12:38:00,
2013-01-23 07:43:00,16.1,6.8,30.35,North,0,0.0,0.0,66,0.00,,,0.00,WUHU216DAVISVP2,2013-01-23 12:43:00,
2013-01-23 07:48:00,16.1,6.8,30.35,North,0,0.0,0.0,66,0.00,,,0.00,WUHU216DAVISVP2,2013-01-23 12:48:00,
2013-01-23 07:53:00,16.1,6.4,30.35,North,0,0.0,0.0,65,0.00,,,0.00,WUHU216DAVISVP2,2013-01-23 12:53:00,
2013-01-23 07:58:00,16.1,6.4,30.35,North,0,0.0,0.0,65,0.00,,,0.00,WUHU216DAVISVP2,2013-01-23 12:58:00,
2013-01-23 08:03:00,16.2,6.5,30.35,North,0,0.0,0.0,65,0.00,,,0.00,WUHU216DAVISVP2,2013-01-23 13:03:00,
2013-01-23 08:08:00,16.2,6.5,30.35,North,0,0.0,0.0,65,0.00,,,0.00,WUHU216DAVISVP2,2013-01-23 13:08:00,
2013-01-23 08:13:00,16.4,6.7,30.35,North,0,0.0,0.0,65,0.00,,,0.00,WUHU216DAVISVP2,2013-01-23 13:13:00,
2013-01-23 08:18:00,16.5,6.8,30.35,North,0,0.0,0.0,65,0.00,,,0.00,WUHU216DAVISVP2,2013-01-23 13:18:00,
2013-01-23 08:23:00,16.7,7.0,30.35,North,0,0.0,0.0,65,0.00,,,0.00,WUHU216DAVISVP2,2013-01-23 13:23:00,
2013-01-23 08:28:00,17.2,7.8,30.35,North,0,0.0,0.0,66,0.00,,,0.00,WUHU216DAVISVP2,2013-01-23 13:28:00,
2013-01-23 08:33:00,17.7,8.6,30.35,North,0,0.0,0.0,67,0.00,,,0.00,WUHU216DAVISVP2,2013-01-23 13:33:00,
2013-01-23 08:38:00,18.3,9.2,30.35,North,0,0.0,0.0,67,0.00,,,0.00,WUHU216DAVISVP2,2013-01-23 13:38:00,
2013-01-23 08:43:00,18.8,9.6,30.35,North,0,0.0,0.0,67,0.00,,,0.00,WUHU216DAVISVP2,2013-01-23 13:43:00,
2013-01-23 08:48:00,19.5,10.0,30.36,North,0,0.0,0.0,66,0.00,,,0.00,WUHU216DAVISVP2,2013-01-23 13:48:00,
2013-01-23 08:53:00,20.3,9.7,30.36,North,0,0.0,0.0,63,0.00,,,0.00,WUHU216DAVISVP2,2013-01-23 13:53:00,
2013-01-23 08:58:00,21.4,10.7,30.36,North,0,0.0,0.0,63,0.00,,,0.00,WUHU216DAVISVP2,2013-01-23 13:58:00,
2013-01-23 09:03:00,22.1,10.3,30.36,North,0,0.0,0.0,60,0.00,,,0.00,WUHU216DAVISVP2,2013-01-23 14:03:00,
2013-01-23 09:08:00,22.9,10.3,30.36,North,0,0.0,0.0,58,0.00,,,0.00,WUHU216DAVISVP2,2013-01-23 14:08:00,
2013-01-23 09:13:00,23.3,9.9,30.36,North,0,2.0,4.0,56,0.00,,,0.00,WUHU216DAVISVP2,2013-01-23 14:13:00,
2013-01-23 09:18:00,23.8,9.1,30.36,North,0,0.0,4.0,53,0.00,,,0.00,WUHU216DAVISVP2,2013-01-23 14:18:00,
2013-01-23 09:23:00,24.1,9.0,30.36,North,354,0.0,2.0,52,0.00,,,0.00,WUHU216DAVISVP2,2013-01-23 14:23:00,
2013-01-23 09:28:00,24.4,8.4,30.36,North,354,0.0,2.0,50,0.00,,,0.00,WUHU216DAVISVP2,2013-01-23 14:28:00,
2013-01-23 09:33:00,24.8,8.8,30.36,North,352,1.0,4.0,50,0.00,,,0.00,WUHU216DAVISVP2,2013-01-23 14:33:00,
2013-01-23 09:38:00,25.3,8.8,30.36,North,350,0.0,4.0,49,0.00,,,0.00,WUHU216DAVISVP2,2013-01-23 14:38:00,
2013-01-23 09:43:00,25.8,8.8,30.36,North,350,0.0,2.0,48,0.00,,,0.00,WUHU216DAVISVP2,2013-01-23 14:43:00,
2013-01-23 09:48:00,26.4,8.4,30.36,NNW,344,1.0,2.0,46,0.00,,,0.00,WUHU216DAVISVP2,2013-01-23 14:48:00,
2013-01-23 09:53:00,27.2,9.6,30.36,NE,34,0.0,2.0,47,0.00,,,0.00,WUHU216DAVISVP2,2013-01-23 14:53:00,
2013-01-23 09:58:00,27.5,9.9,30.36,NNE,24,2.0,4.0,47,0.00,,,0.00,WUHU216DAVISVP2,2013-01-23 14:58:00,
2013-01-23 10:03:00,27.9,10.2,30.36,NNE,21,0.0,4.0,47,0.00,,,0.00,WUHU216DAVISVP2,2013-01-23 15:03:00,
2013-01-23 10:08:00,28.7,10.0,30.36,NNE,23,0.0,2.0,45,0.00,,,0.00,WUHU216DAVISVP2,2013-01-23 15:08:00,
2013-01-23 10:13:00,28.8,9.6,30.36,NNE,23,1.0,2.0,44,0.00,,,0.00,WUHU216DAVISVP2,2013-01-23 15:13:00,
2013-01-23 10:18:00,29.0,9.8,30.36,North,7,0.0,4.0,44,0.00,,,0.00,WUHU216DAVISVP2,2013-01-23 15:18:00,
2013-01-23 10:23:00,29.1,9.2,30.36,North,0,1.0,4.0,43,0.00,,,0.00,WUHU216DAVISVP2,2013-01-23 15:23:00,
2013-01-23 10:28:00,29.0,9.1,30.36,NW,311,1.0,7.0,43,0.00,,,0.00,WUHU216DAVISVP2,2013-01-23 15:28:00,
2013-01-23 10:33:00,29.0,9.1,30.36,North,0,0.0,7.0,43,0.00,,,0.00,WUHU216DAVISVP2,2013-01-23 15:33:00,
2013-01-23 10:38:00,28.8,7.9,30.36,South,185,1.0,8.0,41,0.00,,,0.00,WUHU216DAVISVP2,2013-01-23 15:38:00,
2013-01-23 10:43:00,29.0,8.0,30.36,WNW,301,0.0,8.0,41,0.00,,,0.00,WUHU216DAVISVP2,2013-01-23 15:43:00,
2013-01-23 10:48:00,29.4,7.8,30.36,NNW,344,6.0,6.0,40,0.00,,,0.00,WUHU216DAVISVP2,2013-01-23 15:48:00,
2013-01-23 10:53:00,29.5,7.9,30.36,NW,320,0.0,6.0,40,0.00,,,0.00,WUHU216DAVISVP2,2013-01-23 15:53:00,
2013-01-23 10:58:00,30.0,6.6,30.36,SE,128,0.0,8.0,37,0.00,,,0.00,WUHU216DAVISVP2,2013-01-23 15:58:00,
2013-01-23 11:03:00,30.3,8.1,30.35,WNW,302,4.0,8.0,39,0.00,,,0.00,WUHU216DAVISVP2,2013-01-23 16:03:00,
2013-01-23 11:08:00,30.6,7.8,30.35,SW,222,0.0,7.0,38,0.00,,,0.00,WUHU216DAVISVP2,2013-01-23 16:08:00,
2013-01-23 11:13:00,31.0,8.1,30.35,NW,313,0.0,8.0,38,0.00,,,0.00,WUHU216DAVISVP2,2013-01-23 16:13:00,
2013-01-23 11:18:00,31.3,6.6,30.34,SE,136,0.0,8.0,35,0.00,,,0.00,WUHU216DAVISVP2,2013-01-23 16:18:00,
2013-01-23 11:23:00,31.3,7.8,30.34,NNW,337,4.0,7.0,37,0.00,,,0.00,WUHU216DAVISVP2,2013-01-23 16:23:00,
2013-01-23 11:28:00,31.5,7.4,30.34,NNW,330,2.0,8.0,36,0.00,,,0.00,WUHU216DAVISVP2,2013-01-23 16:28:00,
2013-01-23 11:33:00,31.5,7.6,30.33,North,4,0.0,8.0,36,0.00,,,0.00,WUHU216DAVISVP2,2013-01-23 16:33:00,
2013-01-23 11:38:00,31.8,7.6,30.33,NW,312,2.0,8.0,36,0.00,,,0.00,WUHU216DAVISVP2,2013-01-23 16:38:00,
2013-01-23 11:43:00,32.2,8.0,30.33,NW,316,2.0,8.0,36,0.00,,,0.00,WUHU216DAVISVP2,2013-01-23 16:43:00,
2013-01-23 11:48:00,32.5,7.0,30.32,WNW,295,4.0,8.0,34,0.00,,,0.00,WUHU216DAVISVP2,2013-01-23 16:48:00,
2013-01-23 11:53:00,32.9,7.3,30.32,NNW,330,7.0,10.0,34,0.00,,,0.00,WUHU216DAVISVP2,2013-01-23 16:53:00,
2013-01-23 11:58:00,33.1,7.7,30.32,North,354,8.0,10.0,34,0.00,,,0.00,WUHU216DAVISVP2,2013-01-23 16:58:00,
2013-01-23 12:03:00,33.4,7.1,30.31,WNW,294,1.0,10.0,33,0.00,,,0.00,WUHU216DAVISVP2,2013-01-23 17:03:00,
2013-01-23 12:08:00,33.5,7.9,30.31,North,356,8.0,10.0,34,0.00,,,0.00,WUHU216DAVISVP2,2013-01-23 17:08:00,
2013-01-23 12:13:00,34.0,8.3,30.31,WNW,298,1.0,8.0,34,0.00,,,0.00,WUHU216DAVISVP2,2013-01-23 17:13:00,
2013-01-23 12:18:00,34.3,8.1,30.29,NW,311,0.0,7.0,33,0.00,,,0.00,WUHU216DAVISVP2,2013-01-23 17:18:00,
2013-01-23 12:23:00,34.6,7.5,30.29,NNW,335,1.0,7.0,32,0.00,,,0.00,WUHU216DAVISVP2,2013-01-23 17:23:00,
2013-01-23 12:28:00,34.4,6.6,30.29,ESE,116,1.0,7.0,31,0.00,,,0.00,WUHU216DAVISVP2,2013-01-23 17:28:00,
2013-01-23 12:33:00,34.3,7.2,30.28,East,99,0.0,7.0,32,0.00,,,0.00,WUHU216DAVISVP2,2013-01-23 17:33:00,
2013-01-23 12:38:00,34.7,8.5,30.28,SE,128,0.0,9.0,33,0.00,,,0.00,WUHU216DAVISVP2,2013-01-23 17:38:00,
2013-01-23 12:43:00,34.9,7.8,30.28,NW,312,0.0,9.0,32,0.00,,,0.00,WUHU216DAVISVP2,2013-01-23 17:43:00,
2013-01-23 12:48:00,35.3,8.8,30.26,North,349,4.0,7.0,33,0.00,,,0.00,WUHU216DAVISVP2,2013-01-23 17:48:00,
2013-01-23 12:53:00,35.5,8.3,30.26,NNW,336,6.0,7.0,32,0.00,,,0.00,WUHU216DAVISVP2,2013-01-23 17:53:00,
2013-01-23 12:58:00,35.8,9.5,30.26,North,357,1.0,9.0,33,0.00,,,0.00,WUHU216DAVISVP2,2013-01-23 17:58:00,
2013-01-23 13:03:00,36.2,8.9,30.25,SSE,167,1.0,9.0,32,0.00,,,0.00,WUHU216DAVISVP2,2013-01-23 18:03:00,
2013-01-23 13:08:00,36.5,9.9,30.25,NNW,329,2.0,8.0,33,0.00,,,0.00,WUHU216DAVISVP2,2013-01-23 18:08:00,
2013-01-23 13:13:00,36.6,10.0,30.25,NNW,337,7.0,9.0,33,0.00,,,0.00,WUHU216DAVISVP2,2013-01-23 18:13:00,
2013-01-23 13:18:00,36.6,9.5,30.24,North,10,0.0,11.0,32,0.00,,,0.00,WUHU216DAVISVP2,2013-01-23 18:18:00,
2013-01-23 13:23:00,36.6,10.0,30.24,NW,322,6.0,11.0,33,0.00,,,0.00,WUHU216DAVISVP2,2013-01-23 18:23:00,
2013-01-23 13:28:00,36.8,10.1,30.24,NE,37,4.0,9.0,33,0.00,,,0.00,WUHU216DAVISVP2,2013-01-23 18:28:00,
2013-01-23 13:33:00,36.8,10.1,30.23,NW,325,9.0,11.0,33,0.00,,,0.00,WUHU216DAVISVP2,2013-01-23 18:33:00,
2013-01-23 13:38:00,36.9,9.7,30.23,NW,318,6.0,11.0,32,0.00,,,0.00,WUHU216DAVISVP2,2013-01-23 18:38:00,
2013-01-23 13:43:00,36.9,10.2,30.23,WNW,292,2.0,9.0,33,0.00,,,0.00,WUHU216DAVISVP2,2013-01-23 18:43:00,
2013-01-23 13:48:00,37.0,10.3,30.22,WNW,299,6.0,15.0,33,0.00,,,0.00,WUHU216DAVISVP2,2013-01-23 18:48:00,
2013-01-23 13:53:00,37.3,11.2,30.22,NNW,335,1.0,15.0,34,0.00,,,0.00,WUHU216DAVISVP2,2013-01-23 18:53:00,
2013-01-23 13:58:00,37.3,10.6,30.22,WSW,253,1.0,10.0,33,0.00,,,0.00,WUHU216DAVISVP2,2013-01-23 18:58:00,
2013-01-23 14:03:00,37.2,10.5,30.22,West,263,4.0,10.0,33,0.00,,,0.00,WUHU216DAVISVP2,2013-01-23 19:03:00,
2013-01-23 14:08:00,36.9,10.2,30.22,NW,306,2.0,7.0,33,0.00,,,0.00,WUHU216DAVISVP2,2013-01-23 19:08:00,
2013-01-23 14:13:00,36.9,9.5,30.22,NNE,17,1.0,7.0,32,0.00,,,0.00,WUHU216DAVISVP2,2013-01-23 19:13:00,
2013-01-23 14:18:00,37.0,10.5,30.23,ESE,114,0.0,6.0,33,0.00,,,0.00,WUHU216DAVISVP2,2013-01-23 19:18:00,
2013-01-23 14:23:00,37.3,10.1,30.23,ESE,117,1.0,6.0,32,0.00,,,0.00,WUHU216DAVISVP2,2013-01-23 19:23:00,
2013-01-23 14:28:00,37.8,11.7,30.23,East,95,0.0,7.0,34,0.00,,,0.00,WUHU216DAVISVP2,2013-01-23 19:28:00,
2013-01-23 14:33:00,38.2,11.6,30.22,NW,325,1.0,7.0,33,0.00,,,0.00,WUHU216DAVISVP2,2013-01-23 19:33:00,
2013-01-23 14:38:00,38.2,10.7,30.22,ESE,104,0.0,7.0,32,0.00,,,0.00,WUHU216DAVISVP2,2013-01-23 19:38:00,
2013-01-23 14:43:00,38.2,11.4,30.22,North,4,1.0,6.0,33,0.00,,,0.00,WUHU216DAVISVP2,2013-01-23 19:43:00,
2013-01-23 14:48:00,38.2,12.0,30.21,WNW,289,0.0,7.0,34,0.00,,,0.00,WUHU216DAVISVP2,2013-01-23 19:48:00,
2013-01-23 14:53:00,38.0,11.2,30.21,West,275,1.0,7.0,33,0.00,,,0.00,WUHU216DAVISVP2,2013-01-23 19:53:00,
2013-01-23 14:58:00,38.0,11.2,30.21,East,85,6.0,10.0,33,0.00,,,0.00,WUHU216DAVISVP2,2013-01-23 19:58:00,
2013-01-23 15:03:00,38.2,12.0,30.21,East,86,0.0,10.0,34,0.00,,,0.00,WUHU216DAVISVP2,2013-01-23 20:03:00,
2013-01-23 15:08:00,38.2,11.4,30.21,NNW,344,0.0,9.0,33,0.00,,,0.00,WUHU216DAVISVP2,2013-01-23 20:08:00,
2013-01-23 15:13:00,38.2,11.4,30.21,North,0,0.0,9.0,33,0.00,,,0.00,WUHU216DAVISVP2,2013-01-23 20:13:00,
2013-01-23 15:18:00,38.2,12.0,30.20,NNW,339,2.0,7.0,34,0.00,,,0.00,WUHU216DAVISVP2,2013-01-23 20:18:00,
2013-01-23 15:23:00,38.2,12.0,30.20,SW,233,2.0,7.0,34,0.00,,,0.00,WUHU216DAVISVP2,2013-01-23 20:23:00,
2013-01-23 15:28:00,38.2,12.0,30.20,NNW,339,0.0,6.0,34,0.00,,,0.00,WUHU216DAVISVP2,2013-01-23 20:28:00,
2013-01-23 15:33:00,38.0,11.9,30.20,South,171,1.0,8.0,34,0.00,,,0.00,WUHU216DAVISVP2,2013-01-23 20:33:00,
2013-01-23 15:38:00,38.0,12.5,30.20,NNW,329,0.0,8.0,35,0.00,,,0.00,WUHU216DAVISVP2,2013-01-23 20:38:00,
2013-01-23 15:43:00,38.0,12.5,30.20,NNW,329,0.0,6.0,35,0.00,,,0.00,WUHU216DAVISVP2,2013-01-23 20:43:00,
2013-01-23 15:48:00,38.2,12.7,30.19,NW,325,0.0,1.0,35,0.00,,,0.00,WUHU216DAVISVP2,2013-01-23 20:48:00,
2013-01-23 15:53:00,38.3,12.8,30.19,NNW,332,2.0,4.0,35,0.00,,,0.00,WUHU216DAVISVP2,2013-01-23 20:53:00,
2013-01-23 15:58:00,38.5,13.0,30.19,North,0,2.0,4.0,35,0.00,,,0.00,WUHU216DAVISVP2,2013-01-23 20:58:00,
2013-01-23 16:03:00,38.5,13.0,30.18,North,0,0.0,2.0,35,0.00,,,0.00,WUHU216DAVISVP2,2013-01-23 21:03:00,
2013-01-23 16:08:00,38.5,13.0,30.18,North,0,0.0,4.0,35,0.00,,,0.00,WUHU216DAVISVP2,2013-01-23 21:08:00,
2013-01-23 16:13:00,38.3,12.8,30.18,North,349,2.0,4.0,35,0.00,,,0.00,WUHU216DAVISVP2,2013-01-23 21:13:00,
2013-01-23 16:18:00,38.3,12.8,30.19,East,100,1.0,4.0,35,0.00,,,0.00,WUHU216DAVISVP2,2013-01-23 21:18:00,
2013-01-23 16:23:00,38.3,12.8,30.19,SE,140,1.0,4.0,35,0.00,,,0.00,WUHU216DAVISVP2,2013-01-23 21:23:00,
2013-01-23 16:28:00,38.3,12.8,30.19,SE,145,0.0,2.0,35,0.00,,,0.00,WUHU216DAVISVP2,2013-01-23 21:28:00,
2013-01-23 16:33:00,38.3,12.8,30.19,ESE,120,0.0,4.0,35,0.00,,,0.00,WUHU216DAVISVP2,2013-01-23 21:33:00,
2013-01-23 16:38:00,38.3,12.1,30.19,SE,127,0.0,4.0,34,0.00,,,0.00,WUHU216DAVISVP2,2013-01-23 21:38:00,
2013-01-23 16:43:00,38.3,12.8,30.19,SE,127,0.0,1.0,35,0.00,,,0.00,WUHU216DAVISVP2,2013-01-23 21:43:00,
2013-01-23 16:48:00,38.2,12.7,30.18,NE,42,0.0,2.0,35,0.00,,,0.00,WUHU216DAVISVP2,2013-01-23 21:48:00,
2013-01-23 16:53:00,38.0,12.5,30.18,NE,42,0.0,2.0,35,0.00,,,0.00,WUHU216DAVISVP2,2013-01-23 21:53:00,
2013-01-23 16:58:00,37.9,13.7,30.18,NE,42,0.0,0.0,37,0.00,,,0.00,WUHU216DAVISVP2,2013-01-23 21:58:00,
2013-01-23 17:04:00,37.8,14.2,30.18,NE,42,0.0,0.0,38,0.00,,,0.00,WUHU216DAVISVP2,2013-01-23 22:04:00,
2013-01-23 17:09:00,37.5,14.0,30.18,NE,42,0.0,0.0,38,0.00,,,0.00,WUHU216DAVISVP2,2013-01-23 22:09:00,
2013-01-23 17:14:00,37.0,13.5,30.18,NE,42,0.0,0.0,38,0.00,,,0.00,WUHU216DAVISVP2,2013-01-23 22:14:00,
2013-01-23 17:19:00,36.8,14.5,30.18,NE,42,0.0,0.0,40,0.00,,,0.00,WUHU216DAVISVP2,2013-01-23 22:19:00,
2013-01-23 17:24:00,36.5,14.3,30.18,East,90,0.0,2.0,40,0.00,,,0.00,WUHU216DAVISVP2,2013-01-23 22:24:00,
2013-01-23 17:29:00,35.9,14.8,30.18,East,90,0.0,2.0,42,0.00,,,0.00,WUHU216DAVISVP2,2013-01-23 22:29:00,
2013-01-23 17:34:00,35.3,14.3,30.19,East,90,0.0,0.0,42,0.00,,,0.00,WUHU216DAVISVP2,2013-01-23 22:34:00,
2013-01-23 17:39:00,34.7,14.9,30.19,East,90,0.0,0.0,44,0.00,,,0.00,WUHU216DAVISVP2,2013-01-23 22:39:00,
2013-01-23 17:44:00,34.6,14.8,30.19,East,90,0.0,0.0,44,0.00,,,0.00,WUHU216DAVISVP2,2013-01-23 22:44:00,
2013-01-23 17:49:00,33.8,14.6,30.19,East,90,0.0,0.0,45,0.00,,,0.00,WUHU216DAVISVP2,2013-01-23 22:49:00,
2013-01-23 17:54:00,33.4,14.7,30.19,East,90,0.0,0.0,46,0.00,,,0.00,WUHU216DAVISVP2,2013-01-23 22:54:00,
2013-01-23 17:59:00,33.2,14.5,30.19,East,90,0.0,0.0,46,0.00,,,0.00,WUHU216DAVISVP2,2013-01-23 22:59:00,
2013-01-23 18:04:00,32.7,14.6,30.18,East,90,0.0,0.0,47,0.00,,,0.00,WUHU216DAVISVP2,2013-01-23 23:04:00,
2013-01-23 18:09:00,32.2,14.6,30.18,East,90,0.0,0.0,48,0.00,,,0.00,WUHU216DAVISVP2,2013-01-23 23:09:00,
2013-01-23 18:14:00,31.9,14.3,30.18,East,90,0.0,0.0,48,0.00,,,0.00,WUHU216DAVISVP2,2013-01-23 23:14:00,
2013-01-23 18:19:00,31.6,14.1,30.18,East,90,0.0,0.0,48,0.00,,,0.00,WUHU216DAVISVP2,2013-01-23 23:19:00,
2013-01-23 18:24:00,31.2,14.2,30.18,East,90,0.0,0.0,49,0.00,,,0.00,WUHU216DAVISVP2,2013-01-23 23:24:00,
2013-01-23 18:29:00,30.9,13.9,30.18,East,90,0.0,0.0,49,0.00,,,0.00,WUHU216DAVISVP2,2013-01-23 23:29:00,
2013-01-23 18:34:00,30.4,13.9,30.18,East,90,0.0,0.0,50,0.00,,,0.00,WUHU216DAVISVP2,2013-01-23 23:34:00,
2013-01-23 18:39:00,30.1,13.6,30.18,East,90,0.0,0.0,50,0.00,,,0.00,WUHU216DAVISVP2,2013-01-23 23:39:00,
2013-01-23 18:44:00,29.8,13.3,30.18,East,90,0.0,0.0,50,0.00,,,0.00,WUHU216DAVISVP2,2013-01-23 23:44:00,
2013-01-23 18:49:00,29.5,13.1,30.17,East,90,0.0,0.0,50,0.00,,,0.00,WUHU216DAVISVP2,2013-01-23 23:49:00,
2013-01-23 18:54:00,29.1,13.2,30.17,East,90,0.0,0.0,51,0.00,,,0.00,WUHU216DAVISVP2,2013-01-23 23:54:00,
2013-01-23 18:59:00,29.0,13.1,30.17,East,90,0.0,0.0,51,0.00,,,0.00,WUHU216DAVISVP2,2013-01-23 23:59:00,
2013-01-23 19:04:00,28.7,13.2,30.17,East,90,0.0,0.0,52,0.00,,,0.00,WUHU216DAVISVP2,2013-01-24 00:04:00,
2013-01-23 19:09:00,28.4,13.0,30.17,East,90,0.0,0.0,52,0.00,,,0.00,WUHU216DAVISVP2,2013-01-24 00:09:00,
2013-01-23 19:14:00,28.1,13.6,30.17,East,90,0.0,0.0,54,0.00,,,0.00,WUHU216DAVISVP2,2013-01-24 00:14:00,
2013-01-23 19:19:00,27.9,12.9,30.16,East,90,0.0,0.0,53,0.00,,,0.00,WUHU216DAVISVP2,2013-01-24 00:19:00,
2013-01-23 19:24:00,27.6,13.1,30.16,East,90,0.0,0.0,54,0.00,,,0.00,WUHU216DAVISVP2,2013-01-24 00:24:00,
2013-01-23 19:29:00,27.5,13.0,30.16,East,90,0.0,0.0,54,0.00,,,0.00,WUHU216DAVISVP2,2013-01-24 00:29:00,
2013-01-23 19:34:00,27.3,13.2,30.15,East,90,0.0,0.0,55,0.00,,,0.00,WUHU216DAVISVP2,2013-01-24 00:34:00,
2013-01-23 19:39:00,27.0,13.0,30.15,East,90,0.0,0.0,55,0.00,,,0.00,WUHU216DAVISVP2,2013-01-24 00:39:00,
2013-01-23 19:44:00,26.9,12.9,30.15,East,90,0.0,0.0,55,0.00,,,0.00,WUHU216DAVISVP2,2013-01-24 00:44:00,
2013-01-23 19:49:00,26.7,12.7,30.15,East,90,0.0,0.0,55,0.00,,,0.00,WUHU216DAVISVP2,2013-01-24 00:49:00,
2013-01-23 19:54:00,26.6,13.0,30.15,East,90,0.0,0.0,56,0.00,,,0.00,WUHU216DAVISVP2,2013-01-24 00:54:00,
2013-01-23 19:59:00,26.4,12.8,30.15,East,90,0.0,0.0,56,0.00,,,0.00,WUHU216DAVISVP2,2013-01-24 00:59:00,
2013-01-23 20:04:00,26.3,13.1,30.15,East,90,0.0,0.0,57,0.00,,,0.00,WUHU216DAVISVP2,2013-01-24 01:04:00,
2013-01-23 20:09:00,26.1,13.0,30.15,East,90,0.0,0.0,57,0.00,,,0.00,WUHU216DAVISVP2,2013-01-24 01:09:00,
2013-01-23 20:14:00,26.0,12.9,30.15,East,90,0.0,0.0,57,0.00,,,0.00,WUHU216DAVISVP2,2013-01-24 01:14:00,
2013-01-23 20:19:00,25.8,13.1,30.14,East,90,0.0,0.0,58,0.00,,,0.00,WUHU216DAVISVP2,2013-01-24 01:19:00,
2013-01-23 20:24:00,25.7,13.0,30.14,East,90,0.0,0.0,58,0.00,,,0.00,WUHU216DAVISVP2,2013-01-24 01:24:00,
2013-01-23 20:29:00,25.7,13.0,30.14,East,90,0.0,0.0,58,0.00,,,0.00,WUHU216DAVISVP2,2013-01-24 01:29:00,
2013-01-23 20:34:00,25.6,13.3,30.14,East,90,0.0,0.0,59,0.00,,,0.00,WUHU216DAVISVP2,2013-01-24 01:34:00,
2013-01-23 20:39:00,25.4,13.1,30.14,East,90,0.0,0.0,59,0.00,,,0.00,WUHU216DAVISVP2,2013-01-24 01:39:00,
2013-01-23 20:44:00,25.4,13.5,30.14,East,90,0.0,0.0,60,0.00,,,0.00,WUHU216DAVISVP2,2013-01-24 01:44:00,
2013-01-23 20:49:00,25.4,13.5,30.13,East,90,0.0,0.0,60,0.00,,,0.00,WUHU216DAVISVP2,2013-01-24 01:49:00,
2013-01-23 20:54:00,25.4,14.2,30.13,East,90,0.0,0.0,62,0.00,,,0.00,WUHU216DAVISVP2,2013-01-24 01:54:00,
2013-01-23 20:59:00,25.4,14.2,30.13,East,90,0.0,0.0,62,0.00,,,0.00,WUHU216DAVISVP2,2013-01-24 01:59:00,
2013-01-23 21:04:00,25.4,14.2,30.13,East,90,0.0,0.0,62,0.00,,,0.00,WUHU216DAVISVP2,2013-01-24 02:04:00,
2013-01-23 21:09:00,25.6,14.8,30.13,East,90,0.0,0.0,63,0.00,,,0.00,WUHU216DAVISVP2,2013-01-24 02:09:00,
2013-01-23 21:14:00,25.6,14.4,30.13,East,90,0.0,0.0,62,0.00,,,0.00,WUHU216DAVISVP2,2013-01-24 02:14:00,
2013-01-23 21:19:00,25.6,14.8,30.12,East,90,0.0,0.0,63,0.00,,,0.00,WUHU216DAVISVP2,2013-01-24 02:19:00,
2013-01-23 21:24:00,25.7,15.3,30.12,East,90,0.0,0.0,64,0.00,,,0.00,WUHU216DAVISVP2,2013-01-24 02:24:00,
2013-01-23 21:29:00,25.7,15.3,30.12,East,90,0.0,0.0,64,0.00,,,0.00,WUHU216DAVISVP2,2013-01-24 02:29:00,
2013-01-23 21:34:00,25.8,15.4,30.11,East,90,0.0,0.0,64,0.00,,,0.00,WUHU216DAVISVP2,2013-01-24 02:34:00,
2013-01-23 21:39:00,26.0,15.5,30.11,East,90,0.0,0.0,64,0.00,,,0.00,WUHU216DAVISVP2,2013-01-24 02:39:00,
2013-01-23 21:44:00,26.1,16.0,30.11,ENE,76,0.0,1.0,65,0.00,,,0.00,WUHU216DAVISVP2,2013-01-24 02:44:00,
2013-01-23 21:49:00,26.1,16.0,30.10,ENE,76,0.0,1.0,65,0.00,,,0.00,WUHU216DAVISVP2,2013-01-24 02:49:00,
2013-01-23 21:54:00,26.1,16.0,30.10,ENE,76,0.0,0.0,65,0.00,,,0.00,WUHU216DAVISVP2,2013-01-24 02:54:00,
2013-01-23 21:59:00,26.3,16.2,30.10,ENE,76,0.0,0.0,65,0.00,,,0.00,WUHU216DAVISVP2,2013-01-24 02:59:00,
2013-01-23 22:04:00,26.4,16.3,30.09,ENE,76,0.0,0.0,65,0.00,,,0.00,WUHU216DAVISVP2,2013-01-24 03:04:00,
2013-01-23 22:09:00,26.3,16.2,30.09,ENE,76,0.0,0.0,65,0.00,,,0.00,WUHU216DAVISVP2,2013-01-24 03:09:00,
2013-01-23 22:14:00,26.4,16.3,30.09,East,90,0.0,0.0,65,0.00,,,0.00,WUHU216DAVISVP2,2013-01-24 03:14:00,
2013-01-23 22:19:00,26.6,16.4,30.09,East,90,0.0,0.0,65,0.00,,,0.00,WUHU216DAVISVP2,2013-01-24 03:19:00,
2013-01-23 22:24:00,26.7,16.6,30.09,East,90,0.0,0.0,65,0.00,,,0.00,WUHU216DAVISVP2,2013-01-24 03:24:00,
2013-01-23 22:29:00,26.9,16.8,30.09,SE,144,0.0,1.0,65,0.00,,,0.00,WUHU216DAVISVP2,2013-01-24 03:29:00,
2013-01-23 22:34:00,27.2,17.0,30.08,SSE,150,0.0,1.0,65,0.00,,,0.00,WUHU216DAVISVP2,2013-01-24 03:34:00,
2013-01-23 22:39:00,27.5,17.0,30.08,SSE,150,0.0,1.0,64,0.00,,,0.00,WUHU216DAVISVP2,2013-01-24 03:39:00,
2013-01-23 22:44:00,27.9,17.0,30.08,SSE,150,0.0,0.0,63,0.00,,,0.00,WUHU216DAVISVP2,2013-01-24 03:44:00,
2013-01-23 22:49:00,28.4,17.1,30.07,SSE,150,0.0,1.0,62,0.00,,,0.00,WUHU216DAVISVP2,2013-01-24 03:49:00,
2013-01-23 22:54:00,28.7,17.4,30.07,NNE,32,0.0,4.0,62,0.00,,,0.00,WUHU216DAVISVP2,2013-01-24 03:54:00,
2013-01-23 22:59:00,29.0,16.9,30.07,SSE,148,0.0,4.0,60,0.00,,,0.00,WUHU216DAVISVP2,2013-01-24 03:59:00,
2013-01-23 23:04:00,29.3,17.2,30.06,SSE,160,1.0,1.0,60,0.00,,,0.00,WUHU216DAVISVP2,2013-01-24 04:04:00,
2013-01-23 23:09:00,29.5,17.4,30.06,SSE,157,0.0,1.0,60,0.00,,,0.00,WUHU216DAVISVP2,2013-01-24 04:09:00,
2013-01-23 23:14:00,29.8,17.6,30.06,SE,145,0.0,2.0,60,0.00,,,0.00,WUHU216DAVISVP2,2013-01-24 04:14:00,
2013-01-23 23:19:00,30.0,17.4,30.06,SE,145,0.0,2.0,59,0.00,,,0.00,WUHU216DAVISVP2,2013-01-24 04:19:00,
2013-01-23 23:24:00,30.1,17.5,30.06,SE,136,0.0,1.0,59,0.00,,,0.00,WUHU216DAVISVP2,2013-01-24 04:24:00,
2013-01-23 23:29:00,30.3,17.3,30.06,SW,223,0.0,1.0,58,0.00,,,0.00,WUHU216DAVISVP2,2013-01-24 04:29:00,
2013-01-23 23:34:00,30.6,17.2,30.06,NNE,23,0.0,1.0,57,0.00,,,0.00,WUHU216DAVISVP2,2013-01-24 04:34:00,
2013-01-23 23:39:00,30.7,17.3,30.06,NNE,21,0.0,1.0,57,0.00,,,0.00,WUHU216DAVISVP2,2013-01-24 04:39:00,
2013-01-23 23:44:00,30.6,17.2,30.05,NNE,21,0.0,0.0,57,0.00,,,0.00,WUHU216DAVISVP2,2013-01-24 04:44:00,
2013-01-23 23:49:00,30.6,17.2,30.05,NNE,21,0.0,0.0,57,0.00,,,0.00,WUHU216DAVISVP2,2013-01-24 04:49:00,
2013-01-23 23:54:00,30.4,17.0,30.05,NNE,27,0.0,0.0,57,0.00,,,0.00,WUHU216DAVISVP2,2013-01-24 04:54:00,
2013-01-23 23:59:00,30.3,17.3,30.04,North,359,0.0,0.0,58,0.00,,,0.00,WUHU216DAVISVP2,2013-01-24 04:59:00,